Back to catalog

SATCOM 3 DEB

LostHEO
NORAD 49958·DEBRIS·🇺🇸 United States

Launched Dec 7, 1979 from Cape Canaveral Space Force Station

Loading…

Next Passes (next 24 hours)

TLE

StaleSource: Space-Track

Epoch: Mar 3, 2024, 04:07 UTC

1 49958U 79101AC  24063.17195618 -.00000083  00000-0  00000+0 0  9997
2 49958  11.2641  66.6390 4524115 141.6855 326.5659  1.72951492 98704

Track SATCOM 3 DEB in real time with AllMySat

Download on the App Store